DW7098 Aberdeen WA US current weather conditions

sailwx.info

Wind from 209 at 2 knots gusting 9

Air temperature 15.0° C

Last reported at 2020-Sep-24 07:46 UTC.
Time now 2020-Sep-24 08:21 UTC

Location: N 46°59' W 123°50'.
View on Google Maps.

See reports from other nearby stations

  
Tides and Currents Weather Stations Pressure Air Temp Water Temp Dewpoint Dewpoint Depression Visibility Wind Speed Wind Dir Waves Ship Positions
date/time (UTC)wind fromknots sea level pressurealtimeterstation pressurevisibilityair tempwater tempwave heightnotes
2020-Sep-24 07:46 209 2 gusting 9 15.0
2020-Sep-24 07:31 238 6 gusting 9 15.0
2020-Sep-24 07:16 241 6 gusting 12 15.0
2020-Sep-24 07:01 245 5 gusting 12 15.0
2020-Sep-24 06:46 222 6 gusting 13 15.0
2020-Sep-24 06:31 217 5 gusting 9 15.0
2020-Sep-24 06:16 227 6 gusting 13 15.0
2020-Sep-24 06:01 206 6 gusting 12 15.0
2020-Sep-24 05:46 257 6 gusting 14 15.0
2020-Sep-24 05:31 232 5 gusting 12 15.0
2020-Sep-24 05:16 229 5 gusting 15 15.0
2020-Sep-24 05:01 282 5 gusting 10 15.0
2020-Sep-24 04:46 193 4 gusting 9 15.0
2020-Sep-24 04:31 216 4 gusting 8 15.0
2020-Sep-24 04:16 237 6 gusting 12 15.0
2020-Sep-24 04:01 267 5 gusting 13 15.0
2020-Sep-24 03:46 252 4 gusting 13 15.0
2020-Sep-24 03:31 238 4 gusting 13 15.6
2020-Sep-24 03:16 206 2 gusting 14 15.6
2020-Sep-24 03:01 229 9 gusting 15 15.6
2020-Sep-24 02:46 239 6 gusting 17 15.0
2020-Sep-24 02:31 232 7 gusting 15 15.0
2020-Sep-24 02:16 206 7 gusting 20 15.0
2020-Sep-24 02:01 234 7 gusting 24 15.0
2020-Sep-24 01:46 223 8 gusting 21 15.0
2020-Sep-24 01:31 209 9 gusting 19 15.0
2020-Sep-24 01:16 220 12 gusting 21 15.0
2020-Sep-24 01:01 189 9 gusting 21 15.0
2020-Sep-24 00:46 220 10 gusting 23 15.0
2020-Sep-24 00:31 226 7 gusting 17 15.0
2020-Sep-24 00:16 191 11 gusting 18 15.0
2020-Sep-24 00:01 218 7 gusting 18 15.6
2020-Sep-23 23:46 216 5 gusting 16 15.6
2020-Sep-23 23:31 205 7 gusting 13 16.1
2020-Sep-23 23:16 196 7 gusting 14 16.1
2020-Sep-23 23:01 218 8 gusting 16 16.1
2020-Sep-23 22:46 165 7 gusting 15 16.7
2020-Sep-23 22:31 203 9 gusting 15 16.7
2020-Sep-23 22:16 221 6 gusting 13 16.7
2020-Sep-23 22:01 218 6 gusting 14 16.7
2020-Sep-23 21:46 200 5 gusting 15 16.7
2020-Sep-23 21:31 157 4 gusting 12 16.1
2020-Sep-23 21:16 216 8 gusting 18 16.1
2020-Sep-23 21:01 199 12 gusting 17 16.1
2020-Sep-23 20:46 196 8 gusting 22 16.1
2020-Sep-23 20:31 222 7 gusting 22 16.1
2020-Sep-23 20:16 215 3 gusting 19 16.1
2020-Sep-23 20:01 188 6 gusting 26 16.1
2020-Sep-23 19:46 186 13 gusting 24 16.1
2020-Sep-23 19:31 160 13 gusting 22 16.7
2020-Sep-23 19:16 202 6 gusting 16 16.1
2020-Sep-23 19:01 211 4 gusting 10 15.6
2020-Sep-23 18:46 127 3 gusting 7 15.6
2020-Sep-23 18:31 151 2 gusting 5 15.6
2020-Sep-23 18:16 100 1 gusting 9 16.1
2020-Sep-23 18:01 173 2 gusting 6 15.6
2020-Sep-23 17:46 116 2 gusting 6 15.6
2020-Sep-23 17:31 147 5 gusting 11 16.1
2020-Sep-23 17:01 171 6 gusting 12 16.1
2020-Sep-23 16:31 103 4 gusting 19 16.1
2020-Sep-23 16:01 194 3 gusting 8 15.6
2020-Sep-23 15:31 140 1 gusting 4 15.0
2020-Sep-23 15:01 130 3 gusting 6 15.0
2020-Sep-23 14:31 211 2 gusting 7 15.6
2020-Sep-23 14:01 199 3 gusting 12 15.0
2020-Sep-23 13:31 107 1 gusting 5 14.4
2020-Sep-23 13:01 154 5 gusting 8 15.0
2020-Sep-23 12:31 150 2 gusting 7 14.4
2020-Sep-23 12:01 145 0 gusting 4 13.9
2020-Sep-23 11:31 087 1 gusting 6 13.9
2020-Sep-23 11:01 092 3 gusting 4 13.9
2020-Sep-23 10:31 041 2 gusting 5 13.9
2020-Sep-23 10:01 141 2 gusting 7 13.9
2020-Sep-23 09:31 102 2 gusting 5 13.9
2020-Sep-23 09:01 139 2 gusting 5 14.4
2020-Sep-23 08:31 037 0 gusting 2 15.0
2020-Sep-23 08:01 020 2 gusting 4 14.4
2020-Sep-23 07:31 028 3 gusting 4 14.4
2020-Sep-23 07:01 032 0 gusting 5 14.4
2020-Sep-23 06:31 056 1 gusting 3 14.4
2020-Sep-23 06:01 053 1 gusting 4 15.0
2020-Sep-23 05:31 031 2 gusting 4 14.4
2020-Sep-23 05:01 126 15.0
2020-Sep-23 04:31 127 15.0
2020-Sep-23 04:01 127 15.0
2020-Sep-23 03:31 146 0 gusting 1 15.6
2020-Sep-23 03:01 123 1 gusting 3 15.6
2020-Sep-23 02:31 044 0 gusting 2 16.1
2020-Sep-23 02:01 150 1 gusting 2 16.7
2020-Sep-23 01:31 161 2 gusting 5 16.7
2020-Sep-23 01:01 217 0 gusting 2 17.2
2020-Sep-23 00:31 234 3 gusting 5 17.8
2020-Sep-23 00:01 230 2 gusting 8 17.8
2020-Sep-22 23:31 232 3 gusting 10 18.3
2020-Sep-22 23:01 229 5 gusting 8 19.4
2020-Sep-22 22:31 297 2 gusting 8 19.4
2020-Sep-22 22:01 279 4 gusting 9 21.1
2020-Sep-22 21:31 238 1 gusting 6 19.4
2020-Sep-22 21:01 181 3 gusting 11 20.0
2020-Sep-22 20:31 203 5 gusting 6 20.6
2020-Sep-22 20:01 228 2 gusting 5 19.4
2020-Sep-22 19:31 226 1 gusting 6 18.9
2020-Sep-22 19:01 242 4 gusting 8 19.4
2020-Sep-22 18:31 216 4 gusting 6 18.3
2020-Sep-22 18:01 186 1 gusting 4 17.2
2020-Sep-22 17:31 194 1 gusting 3 16.7
2020-Sep-22 17:01 155 1 gusting 3 15.6
2020-Sep-22 16:31 099 1 gusting 4 15.6
2020-Sep-22 16:01 052 14.4
2020-Sep-22 15:31 116 0 gusting 2 13.9
2020-Sep-22 15:01 115 13.3
2020-Sep-22 14:31 141 13.3
2020-Sep-22 14:01 251 0 gusting 2 13.9
2020-Sep-22 13:31 252 13.9
2020-Sep-22 13:01 252 13.9
2020-Sep-22 12:31 252 13.9
2020-Sep-22 12:01 238 1 gusting 3 13.9
2020-Sep-22 11:31 240 1 gusting 2 13.9
2020-Sep-22 11:01 285 13.9
2020-Sep-22 10:31 285 0 gusting 3 13.9
2020-Sep-22 10:01 277 13.9
2020-Sep-22 09:31 282 13.9
2020-Sep-22 09:01 231 1 gusting 4 13.9
2020-Sep-22 08:31 244 2 gusting 4 14.4
2020-Sep-22 08:01 263 1 gusting 2 15.0